Flag for Greece Weather past 2 weeks in Piraeus, Greece

Now
77 °F

Scattered clouds.


Feels Like: 78 °F
Forecast: 64 / 82 °F
Wind: 9 mph from Southwest

Location: Elefsis Airport

Current Time: May 22, 2015 at 7:28:20 PM

Latest Report: May 22, 2015 at 6:50 PM


Visibility: N/A

Pressure: 29.89 "Hg

Humidity: 39%

Dew point: 50 °F

Location of PiraeusLocation

Historic Weather in Piraeus — Graph

°F

Piraeus temperature yesterday

Maximum temperature yesterday: 84 °F (at 1:50 PM)
Minimum temperature yesterday: 61 °F (at 5:20 AM)
Average temperature yesterday: 74 °F

Past Weeks' High & Low Weather Summary

 TemperatureHumidityPressure
High86 °F (May 9, 2:50 PM)83% (May 16, 2:50 AM)30.12 "Hg (May 16, 2:50 AM)
Low54 °F (May 14, 4:50 AM)19% (May 9, 4:50 PM)29.71 "Hg (May 19, 5:50 PM)
Average71 °F47%29.94 "Hg
* Reported May 7 5:20 PM — May 22 5:50 PM, Piraeus, Weather by CustomWeather, © 2015

Note: Actual official high and low records may vary slightly from our data, if they occured in-between our weather recording intervals... More about our weather records

Advertising

Piraeus weather history for previous 24 hours

 ConditionsComfort  
Time TempWeatherWind HumidityBarometerVisibility
5:50 PM
Fri, May 22
82 °FScattered clouds.5 mph32%29.89 "HgN/A
5:20 PM81 °FScattered clouds.No wind32%29.92 "HgN/A
4:50 PM82 °FScattered clouds.No wind30%29.92 "HgN/A
4:20 PM79 °FScattered clouds.6 mph39%29.92 "HgN/A
3:50 PM79 °FScattered clouds.12 mph39%29.92 "HgN/A
3:20 PM82 °FScattered clouds.12 mph32%29.92 "HgN/A
2:50 PM86 °FScattered clouds.9 mph29%29.89 "HgN/A
2:20 PM82 °FScattered clouds.No wind32%29.89 "HgN/A
1:50 PM79 °FScattered clouds.No wind42%29.92 "HgN/A
1:20 PM82 °FScattered clouds.No wind35%29.95 "HgN/A
12:50 PM82 °FScattered clouds.6 mph35%29.95 "HgN/A
11:50 AM79 °FScattered clouds.No wind42%29.95 "HgN/A
11:20 AM77 °FScattered clouds.No wind44%29.95 "HgN/A
10:50 AM77 °FScattered clouds.No wind44%29.95 "HgN/A
10:20 AM75 °FScattered clouds.No wind50%29.95 "HgN/A
9:50 AM73 °FScattered clouds.No wind53%29.95 "HgN/A
9:20 AM72 °FScattered clouds.No wind61%29.95 "HgN/A
8:50 AM73 °FScattered clouds.No wind50%29.95 "HgN/A
8:20 AM72 °FScattered clouds.No wind50%29.95 "HgN/A
7:50 AM70 °FScattered clouds.No wind53%29.95 "HgN/A
7:20 AM68 °FScattered clouds.No wind60%29.95 "HgN/A
6:50 AM68 °FPassing clouds.No wind56%29.95 "HgN/A
6:20 AM68 °FPassing clouds.3 mph56%29.92 "HgN/A
5:50 AM66 °FPassing clouds.No wind60%29.92 "HgN/A
5:20 AM64 °FPassing clouds.5 mph68%29.92 "HgN/A
4:50 AM64 °FPassing clouds.3 mph64%29.92 "HgN/A
4:20 AM66 °FPassing clouds.3 mph60%29.92 "HgN/A
3:50 AM66 °FPassing clouds.6 mph60%29.95 "HgN/A
3:20 AM66 °FPassing clouds.3 mph64%29.95 "HgN/A
2:50 AM66 °FPassing clouds.3 mph64%29.98 "HgN/A
2:20 AM68 °FPassing clouds.No wind60%29.95 "HgN/A
1:50 AM68 °FPassing clouds.No wind60%29.98 "HgN/A
1:20 AM68 °FPassing clouds.3 mph60%29.98 "HgN/A
12:50 AM68 °FPassing clouds.3 mph69%29.98 "HgN/A
12:20 AM68 °FPassing clouds.3 mph69%29.98 "HgN/A
11:50 PM
Thu, May 21
68 °FPassing clouds.3 mph69%29.98 "HgN/A
11:20 PM70 °FPassing clouds.No wind64%29.98 "HgN/A
10:50 PM70 °FPassing clouds.No wind64%29.98 "HgN/A
10:20 PM70 °FPassing clouds.No wind64%29.98 "HgN/A
9:50 PM70 °FPassing clouds.No wind64%29.95 "HgN/A
9:20 PM72 °FPartly sunny.No wind61%29.95 "HgN/A
8:50 PM72 °FPartly sunny.No wind61%29.95 "HgN/A
8:20 PM73 °FPartly sunny.5 mph57%29.95 "HgN/A
7:50 PM73 °FPartly sunny.6 mph57%29.95 "HgN/A
7:20 PM75 °FPartly sunny.3 mph54%29.92 "HgN/A
Weather by CustomWeather, © 2015

See weather overviewHow to use our weather pages